GFSGBSN_925_rhum_048.txt.gz
RH
86 84 80 75 75 77 90 95 83 74 74 73 74 73 72 80 74 64 58 62 65 69 70 75 73 82 87 86 59 16 22 25 28 29 22 27 27 20 19 20 20 20 21 23 23 26 29
80 82 81 78 75 76 81 84 77 76 76 75 70 66 67 69 69 62 57 59 60 58 67 61 73 86 95 80 19 22 36 43 31 26 24 25 25 23 19 20 24 24 25 26 24 21 55
83 83 84 80 76 72 73 75 77 79 79 77 82 77 75 63 64 66 63 60 59 50 54 59 72 97 84 63 10 36 34 37 34 24 20 22 20 23 22 24 23 23 26 25 21 20 47
76 79 82 87 77 81 84 84 81 76 74 78 80 82 81 78 72 71 70 57 44 39 46 65 83 99 86 22 26 23 18 20 30 29 27 23 22 22 24 22 25 25 27 30 22 37 38
79 83 81 78 90 87 80 77 77 82 83 81 80 81 80 81 80 72 72 72 48 59 68 95 95 92 76 34 54 27 42 32 17 23 28 24 23 26 24 31 35 34 33 30 26 23 38
82 77 78 87 93 94 92 89 85 86 83 84 82 82 79 79 82 81 81 55 57 69 85 93 88 75 46 20 33 35 37 42 26 37 35 33 35 35 38 36 44 38 39 35 32 24 39
83 79 80 85 94 95 95 95 89 88 86 82 83 83 79 80 82 82 78 63 69 71 69 78 73 65 44 50 43 39 37 37 29 37 47 40 43 44 39 34 28 29 31 33 30 26 25
76 78 82 84 85 91 91 94 92 88 76 74 80 82 77 77 82 86 67 88 73 78 95 65 66 63 55 55 60 30 33 30 36 42 40 38 43 36 32 33 32 31 32 36 31 27 29
78 73 74 77 82 84 93 94 94 87 74 79 82 82 76 82 83 78 80 86 70 77 96 69 58 59 42 41 50 39 37 31 34 44 45 43 35 32 33 37 37 38 40 37 34 34 31
74 73 76 79 76 86 84 94 94 82 82 78 81 82 81 89 81 81 73 79 61 78 91 54 61 49 36 48 56 29 30 30 36 40 45 46 35 36 36 36 35 43 36 34 35 37 45
85 77 77 79 72 74 78 76 87 88 82 78 79 81 85 92 91 91 65 65 60 88 27 15 36 28 41 32 21 35 28 28 39 41 44 50 43 42 39 37 33 36 34 37 36 43 37
86 83 76 73 78 74 80 78 86 80 81 79 73 80 87 97 99 92 84 65 80 89 64 26 25 43 48 40 31 32 34 26 29 36 41 39 33 35 34 32 32 30 33 37 40 48 60
82 70 73 72 71 78 86 86 81 75 75 81 74 77 90 100 84 76 72 76 98 94 41 27 27 28 35 40 36 31 37 42 39 44 48 37 41 33 28 34 33 32 40 53 51 64 66
80 77 76 80 69 77 80 80 79 76 72 77 78 78 87 96 97 94 78 95 93 60 61 41 36 32 33 30 29 32 36 38 33 36 46 45 46 42 35 37 40 42 43 62 58 69 46
74 86 88 86 72 72 78 80 77 74 72 69 78 83 93 92 95 93 87 100 69 61 52 52 42 35 37 32 38 31 34 35 31 34 37 47 42 27 31 34 34 42 46 35 46 57 69
83 87 87 91 83 73 79 84 92 88 72 66 93 92 86 86 87 88 98 80 68 53 56 59 53 48 50 42 41 44 44 53 37 32 30 38 43 33 27 29 29 32 33 47 58 54 64
84 88 87 90 92 79 81 90 94 87 72 78 93 98 80 83 96 99 97 91 61 44 47 64 65 57 48 44 43 39 40 53 60 53 38 34 42 41 30 34 35 36 40 38 45 60 58
85 87 86 88 92 90 90 91 94 88 83 92 96 100 92 99 99 100 93 68 48 52 51 58 58 61 56 51 46 34 38 52 65 62 60 60 55 57 41 31 28 29 32 42 59 50 72
86 91 86 84 86 90 89 92 94 78 85 91 99 99 95 97 98 97 89 72 59 66 62 60 63 62 48 43 45 44 50 53 51 69 65 60 76 84 52 37 60 59 44 52 47 54 56
88 87 83 82 92 86 86 92 94 75 77 96 100 99 97 98 88 79 96 91 74 60 64 63 70 61 58 63 48 55 55 43 57 63 78 64 79 70 90 81 77 79 63 55 61 65 54
84 88 83 87 90 87 86 90 93 82 79 96 99 99 97 97 97 92 78 69 79 68 58 60 68 72 72 76 68 54 48 49 40 64 63 64 70 82 77 73 68 60 56 54 55 63 64
85 80 84 94 89 82 89 91 83 78 79 99 100 99 92 91 82 97 93 92 72 64 57 68 78 70 67 77 65 64 53 49 50 48 65 73 71 86 89 72 67 62 55 52 52 54 57
83 91 87 77 80 86 88 88 84 81 86 97 97 90 96 80 97 96 91 80 82 58 58 51 64 69 72 63 61 61 58 58 58 60 71 83 86 88 77 72 64 73 58 50 48 41 48
80 80 83 86 89 90 90 87 85 84 89 98 97 91 100 96 90 91 82 79 76 68 66 60 54 71 58 51 54 61 68 68 68 67 74 84 86 96 96 81 82 42 47 44 47 49 54
91 85 87 82 81 87 88 86 84 89 88 100 98 88 95 95 84 94 90 94 69 63 70 62 61 49 51 54 89 84 89 96 86 82 78 80 93 97 97 96 69 47 39 39 55 30 46
86 91 96 98 96 90 86 86 96 94 95 100 99 97 96 100 94 69 98 95 95 90 74 68 52 48 50 74 92 97 92 68 92 79 85 87 78 85 93 97 86 41 48 58 56 60 67
96 98 98 99 100 97 98 98 91 89 94 100 97 98 97 100 86 75 89 96 85 83 86 78 70 71 59 95 97 96 92 65 82 76 97 98 99 95 81 95 79 62 54 59 67 57 67
97 97 86 94 99 96 94 94 97 96 97 100 96 100 96 100 95 85 74 82 92 84 97 77 83 86 97 99 96 95 98 80 74 79 91 89 96 91 85 97 87 53 70 64 58 64 62
98 88 88 89 88 86 86 83 79 79 86 95 97 99 100 98 97 84 76 65 60 59 58 64 67 78 77 91 93 89 94 95 80 89 78 87 78 88 82 76 59 64 69 65 64 68 64

GFSGBSN_925_rhum_051.txt.gz
RH
80 84 81 80 82 77 81 84 76 74 76 76 74 73 71 72 84 70 64 67 69 65 58 52 65 82 51 69 37 14 9 18 39 36 24 24 28 24 22 20 20 22 18 19 19 22 24
79 82 81 81 82 77 80 75 73 73 75 77 80 82 81 78 74 74 71 70 67 64 54 56 73 86 84 71 13 16 20 30 34 34 26 24 22 20 18 18 19 20 20 22 22 19 39
81 82 78 81 77 74 79 82 81 75 70 73 79 78 79 82 79 78 78 73 73 62 48 70 82 99 78 47 7 23 22 34 40 32 24 24 23 22 23 25 22 23 26 22 21 19 34
79 80 81 79 80 88 87 80 72 70 82 83 84 80 79 79 79 79 79 77 63 50 65 74 94 99 73 20 14 34 13 29 17 29 31 22 22 22 24 23 24 24 27 27 20 31 45
76 79 79 79 81 88 88 80 79 87 86 86 80 78 78 80 81 82 81 66 55 68 70 91 97 82 54 35 58 22 36 38 24 26 28 29 25 26 26 28 29 31 26 28 22 24 43
80 79 78 80 81 89 91 90 88 85 88 82 70 70 77 79 82 82 75 59 58 78 85 93 87 67 50 21 34 37 44 43 28 32 32 32 34 32 33 30 29 30 31 30 25 26 37
80 81 82 84 80 85 88 92 94 85 85 75 69 74 78 84 84 74 67 67 69 66 70 73 65 62 47 55 47 44 42 44 32 34 45 40 38 37 30 29 26 26 28 28 26 22 24
84 86 80 78 79 80 84 88 93 86 85 85 75 76 81 87 84 71 67 80 76 78 95 65 67 61 54 56 61 39 35 34 38 35 42 41 47 33 30 30 28 28 28 28 25 26 26
79 85 77 77 79 77 83 95 89 88 90 85 80 78 83 90 86 72 78 87 73 75 96 64 56 60 54 45 52 41 35 32 35 41 43 42 37 32 30 33 33 32 32 33 28 29 27
91 78 75 77 82 75 79 82 73 80 92 87 82 76 83 92 82 85 74 76 70 72 94 57 64 56 41 42 48 30 27 30 36 37 43 39 33 33 33 33 32 38 32 30 31 30 26
85 82 77 78 74 77 71 72 76 72 89 88 88 73 78 91 98 85 79 73 64 89 44 19 42 32 38 40 25 35 28 28 39 38 40 41 44 37 37 30 30 30 33 32 30 33 38
86 88 81 77 79 74 72 76 77 80 75 83 76 73 77 88 90 86 76 70 82 89 66 34 32 45 47 41 36 35 36 29 28 39 42 32 35 33 29 32 29 30 29 37 41 42 51
91 80 82 83 78 76 73 74 73 80 75 76 77 76 81 88 88 80 79 74 84 86 42 40 41 32 31 38 42 37 42 39 35 43 52 44 38 33 30 35 33 30 36 42 48 53 48
93 85 92 88 87 86 68 72 74 78 80 69 75 80 75 81 92 97 74 87 90 53 62 44 42 41 32 32 33 34 41 40 34 37 36 40 48 38 35 35 38 38 35 44 48 54 39
92 91 88 88 86 72 75 73 73 74 81 68 79 80 83 75 77 94 86 95 70 58 54 61 50 42 39 32 37 36 37 37 29 36 41 47 38 32 36 35 29 41 42 33 45 53 51
85 87 87 87 88 77 87 71 74 76 90 77 99 94 86 75 80 89 99 84 67 53 54 57 60 47 49 42 35 36 47 55 54 38 32 40 42 32 30 30 33 31 32 43 50 48 50
83 90 91 88 90 79 82 77 71 85 80 90 98 95 73 78 98 99 98 82 65 46 43 59 66 63 57 54 45 35 37 43 55 61 37 35 40 40 30 34 34 37 37 39 40 48 45
92 87 83 85 85 88 81 86 89 92 86 95 86 91 74 99 96 100 98 92 53 49 50 50 59 58 60 50 47 41 41 58 46 65 63 62 50 50 35 30 30 30 36 38 49 45 59
91 87 86 85 88 83 83 82 92 92 91 92 95 82 70 99 94 91 99 94 61 61 59 60 67 64 56 52 50 42 48 46 42 61 70 63 67 68 53 42 53 61 59 55 58 55 53
80 82 82 85 85 84 78 82 89 81 76 98 97 100 95 97 84 86 96 86 79 60 57 62 67 62 60 62 54 54 50 43 47 52 78 61 64 66 63 62 65 66 52 47 51 67 58
88 86 85 83 84 84 83 91 87 82 73 92 96 95 83 98 91 96 90 96 79 69 57 56 70 67 69 72 65 57 49 47 42 49 62 61 60 62 49 52 62 57 50 45 51 48 55
81 89 89 84 76 72 89 88 89 88 93 98 100 100 98 87 86 98 96 99 80 69 60 66 69 66 65 70 60 56 56 48 50 48 71 60 68 78 76 66 59 62 52 47 46 44 43
91 93 84 79 84 86 94 95 86 91 91 88 86 98 97 85 79 93 80 84 87 64 60 50 63 75 79 65 60 58 57 55 54 60 60 64 82 79 68 71 60 61 58 48 39 33 36
87 85 80 81 86 89 85 81 82 84 89 88 92 98 99 92 94 82 73 91 76 68 74 62 58 80 58 50 56 61 66 67 64 64 58 70 82 91 86 80 71 36 42 40 43 38 33
84 85 85 84 83 82 83 81 83 83 82 98 88 98 99 89 80 76 74 81 96 75 75 77 66 54 60 73 86 80 80 85 80 75 74 63 81 89 87 79 55 39 34 32 40 30 45
84 84 85 86 82 82 83 77 74 67 75 92 95 97 97 100 85 64 75 75 94 100 99 88 70 66 61 98 97 88 83 72 80 73 82 85 74 86 92 76 76 43 53 53 47 47 48
84 84 85 86 92 94 95 94 92 79 81 89 91 99 97 99 86 70 74 87 96 91 91 86 81 94 78 99 91 85 76 66 70 72 80 88 96 90 92 86 68 49 43 51 55 41 46
90 87 84 90 93 96 98 100 99 97 93 96 96 99 96 100 95 73 63 80 87 98 98 81 94 95 99 96 90 86 88 73 62 72 75 71 77 81 79 94 84 47 63 62 45 52 53
100 96 96 98 97 98 94 95 100 95 88 95 96 100 100 98 96 81 70 66 62 70 73 78 69 83 87 84 85 78 88 86 70 71 75 78 68 72 71 65 54 55 59 57 59 64 59

GFSGBSN_925_rhum_057.txt.gz
RH
80 83 76 72 74 76 82 88 74 74 75 71 68 72 83 87 90 79 71 67 62 60 61 66 77 91 55 30 26 14 11 20 42 40 26 18 17 16 16 11 9 11 10 8 8 8 10
84 75 77 73 72 79 91 85 77 72 67 61 69 84 75 71 75 75 69 62 60 59 61 68 76 96 54 41 19 15 24 12 15 30 24 17 17 13 12 10 10 9 11 10 9 9 9
85 82 74 74 71 71 80 74 75 73 72 78 84 84 78 75 76 73 65 62 58 57 60 62 94 84 46 29 16 20 27 22 13 11 16 23 18 13 12 13 11 11 13 12 10 10 10
79 85 84 84 73 76 77 73 70 78 80 75 79 82 80 82 83 72 65 59 60 58 62 67 85 70 40 19 21 25 28 26 25 15 16 20 17 20 16 13 13 15 14 16 11 10 10
84 87 85 88 86 70 71 70 78 85 73 71 77 83 80 83 82 69 64 53 60 66 72 74 78 56 32 23 22 19 29 27 25 14 15 18 16 21 19 20 21 18 19 16 15 10 10
80 81 85 88 82 69 86 75 74 86 76 72 74 86 87 85 77 69 60 54 58 74 71 60 49 59 35 14 20 30 33 25 36 18 15 15 20 24 21 20 26 20 19 17 15 12 12
91 92 87 86 87 86 78 92 75 81 86 73 75 89 87 85 73 67 74 44 34 46 33 31 26 35 23 25 24 25 40 38 32 27 19 16 22 24 23 20 17 16 16 15 13 10 12
90 91 91 93 81 85 77 90 79 75 84 85 71 75 85 79 69 64 68 44 52 59 70 37 34 35 31 28 35 24 32 35 46 50 22 24 25 16 14 15 15 16 17 17 13 11 14
87 86 82 83 90 91 85 79 88 77 75 81 70 73 76 74 67 76 53 52 54 60 57 34 27 30 31 30 33 26 25 26 51 58 50 28 18 19 18 18 17 18 19 18 17 12 14
89 89 86 82 82 89 90 82 81 77 65 71 69 74 72 70 72 57 49 50 56 62 68 20 22 28 31 29 36 23 16 27 33 46 44 40 16 21 22 21 20 24 16 16 16 17 21
90 80 83 75 83 83 83 77 74 78 66 72 68 74 68 73 68 63 52 58 59 68 46 13 25 25 26 30 24 23 16 17 33 32 30 33 23 20 24 21 19 22 16 16 18 20 20
92 92 87 93 72 76 72 78 76 81 67 64 73 72 75 57 79 61 56 67 59 88 38 18 19 22 22 22 28 22 29 21 18 25 22 25 20 23 27 19 16 15 18 18 20 21 31
86 84 91 90 85 73 74 78 79 78 69 65 68 73 71 66 60 66 66 57 57 43 17 24 26 23 22 24 25 29 36 34 32 39 32 20 27 21 21 24 17 18 22 31 33 34 35
86 88 77 89 87 83 89 74 83 79 71 71 68 71 68 58 55 68 68 54 54 20 22 22 25 21 22 23 26 26 37 40 30 29 33 27 38 24 22 24 22 21 23 30 39 40 28
91 90 84 89 93 86 86 89 60 73 78 71 70 60 55 54 59 59 70 70 28 21 20 26 20 18 20 24 25 24 28 39 28 25 32 25 18 15 20 21 22 24 28 18 27 29 36
93 89 81 86 86 73 85 69 74 77 78 78 58 75 55 48 58 62 86 57 28 24 29 25 24 24 29 30 28 25 33 38 41 29 19 23 27 14 18 22 22 23 18 27 28 44 46
83 80 86 88 76 87 86 82 71 74 79 78 61 83 41 53 61 88 87 50 30 21 28 31 28 34 30 35 32 30 35 37 38 37 28 22 30 26 23 29 28 27 30 29 24 28 38
90 84 79 86 87 89 77 74 62 72 79 84 60 92 48 64 94 76 77 42 35 28 26 29 30 35 38 35 37 34 31 29 35 40 54 31 34 35 39 21 21 22 27 32 36 43 30
90 79 83 88 89 80 80 87 84 80 84 79 66 64 47 74 85 74 50 44 37 33 30 30 31 29 28 35 41 32 29 26 28 38 54 51 37 42 36 30 26 27 25 25 28 30 50
89 82 86 89 92 92 77 73 67 77 82 90 80 92 53 79 66 61 52 55 49 36 33 27 28 27 36 38 33 38 32 26 27 31 53 54 51 34 36 33 23 32 30 28 30 42 39
85 88 90 94 91 85 86 90 87 86 83 93 82 82 56 75 56 61 54 64 48 50 35 29 34 32 34 40 35 39 36 30 26 38 35 64 65 51 28 32 30 28 32 32 33 31 37
85 86 85 81 89 82 82 78 81 82 78 98 98 72 48 51 49 46 49 66 56 45 41 40 38 31 32 38 36 43 38 45 42 30 35 55 74 56 56 32 32 36 31 28 26 24 26
81 82 86 89 89 91 91 76 73 71 88 98 70 63 79 58 48 55 56 41 39 35 42 44 36 38 42 38 38 44 44 56 46 44 45 44 50 73 72 40 36 41 34 30 29 25 26
85 83 82 82 87 89 88 87 76 74 88 92 87 61 84 74 50 49 38 50 43 38 38 39 39 52 41 44 43 41 42 42 41 41 40 48 45 46 64 52 82 28 21 20 24 21 18
88 88 87 84 82 89 91 91 81 71 87 96 96 83 76 86 45 39 49 47 32 38 49 44 50 68 68 67 69 62 60 61 63 41 42 40 47 56 54 49 32 22 20 21 22 18 16
84 86 85 85 83 84 84 73 76 84 90 95 98 91 82 81 63 40 36 31 45 46 45 54 52 71 87 96 100 77 65 50 50 46 37 39 44 58 56 56 49 26 21 25 21 25 24
97 99 100 92 84 84 84 78 76 86 93 88 97 89 84 96 51 50 79 60 43 47 54 65 74 86 92 100 93 80 64 45 60 63 59 58 56 63 56 53 35 20 23 22 43 44 35
99 100 100 100 97 87 85 84 83 85 85 92 81 77 84 86 56 45 42 51 61 62 85 75 97 98 100 100 70 60 61 48 42 53 50 53 64 64 56 63 58 24 26 37 54 40 39
99 97 97 100 100 94 86 83 82 74 75 78 78 62 78 87 57 60 51 43 52 48 63 85 73 90 62 72 53 64 65 58 45 53 53 58 43 47 40 42 34 28 43 46 44 45 45

GFSGBSN_925_rhum_063.txt.gz
RH
86 86 86 84 90 85 81 89 82 74 70 79 83 80 92 94 94 93 59 51 55 54 54 57 67 94 95 66 54 12 17 19 15 31 33 29 24 27 33 26 25 24 19 15 13 12 12
86 88 88 88 86 81 84 83 73 72 78 85 90 83 75 72 76 66 48 48 48 51 50 54 76 96 88 90 21 17 21 20 18 15 25 26 25 22 25 23 23 20 19 16 13 12 11
96 91 92 86 87 78 72 70 66 69 82 93 95 91 78 71 68 54 48 41 45 44 50 56 83 96 80 71 19 19 22 18 20 24 13 13 12 17 27 32 21 19 22 17 14 12 11
90 90 90 87 79 79 75 72 68 70 85 88 87 96 79 70 63 49 40 42 39 42 49 60 76 95 80 35 28 29 20 18 16 19 19 22 14 16 26 26 26 28 25 26 16 14 13
88 95 92 86 86 79 83 81 73 74 88 80 73 80 78 67 61 41 37 35 46 42 59 67 90 92 74 35 35 20 19 18 20 22 22 24 15 17 22 33 39 32 38 29 20 14 14
88 88 92 95 88 94 89 86 81 75 81 81 92 89 72 65 59 40 42 49 40 42 54 74 73 87 58 33 21 20 21 26 21 32 35 29 26 23 28 37 56 46 34 26 25 18 16
84 88 90 89 89 90 91 91 92 81 77 79 82 76 66 65 56 39 48 69 47 54 51 54 53 58 40 28 21 20 26 28 39 48 60 39 39 40 24 30 30 31 31 33 27 19 20
89 88 88 87 84 83 82 85 89 89 81 75 66 66 64 63 58 37 68 81 52 56 75 49 46 41 37 31 32 25 20 42 55 74 71 65 55 37 24 20 32 31 32 34 26 20 21
93 90 90 88 87 87 85 84 90 79 86 78 70 68 61 62 47 63 61 57 54 51 82 57 35 37 33 29 34 32 23 42 50 64 80 83 58 38 38 27 20 30 35 34 30 22 18
90 86 87 88 92 91 86 83 78 71 74 75 78 71 61 61 64 52 61 56 59 58 85 52 34 25 28 27 34 24 21 24 44 49 69 78 62 53 49 56 29 23 19 22 22 24 30
88 85 87 95 81 80 80 72 68 75 70 71 76 70 62 61 70 73 59 61 60 67 97 34 27 23 25 31 26 24 18 23 35 56 73 66 71 66 59 42 34 42 25 27 28 30 30
88 90 88 94 90 78 80 78 82 91 73 78 78 72 66 61 68 65 62 57 66 92 89 21 26 31 32 31 30 27 23 21 22 31 50 50 49 67 66 50 46 37 46 36 34 33 48
85 84 84 89 94 93 74 79 76 88 73 75 74 73 75 74 73 49 56 76 84 91 28 22 24 20 21 22 31 31 37 33 34 36 38 38 47 41 54 66 47 40 60 63 58 58 60
80 83 81 88 94 93 90 92 82 74 80 70 75 73 65 69 66 62 66 87 88 44 39 18 20 19 23 18 22 31 40 48 32 31 40 40 66 38 33 35 56 43 48 72 64 67 48
84 88 90 93 85 94 90 92 81 80 84 80 75 70 83 59 61 62 85 93 68 36 23 26 24 24 22 15 21 26 39 43 35 34 42 49 48 31 28 32 35 51 52 34 56 65 67
76 90 88 94 91 87 88 91 78 72 74 74 89 80 77 55 57 68 98 71 57 36 34 34 33 26 24 24 26 29 39 52 61 41 30 37 49 32 32 30 36 41 32 63 85 91 95
82 85 82 86 90 91 85 91 89 77 70 80 82 95 50 44 52 88 94 77 50 38 36 33 32 35 32 32 27 31 40 50 43 44 43 48 49 41 31 34 42 42 54 84 77 64 71
88 90 90 88 93 94 90 90 90 81 79 80 79 99 53 52 91 92 88 59 46 44 40 42 36 34 38 37 40 36 34 46 34 36 57 54 72 57 37 25 26 35 42 72 100 83 70
88 86 90 91 91 82 87 91 90 76 81 77 96 78 49 59 98 94 68 54 52 51 49 43 37 32 31 37 44 34 33 38 32 36 53 45 70 74 56 38 34 45 34 50 54 59 97
83 85 91 91 90 93 91 90 86 68 81 92 98 98 78 86 80 96 85 73 59 43 42 39 35 32 38 39 35 39 38 32 41 40 51 43 65 80 85 70 77 80 59 36 48 84 79
80 87 87 88 88 89 92 86 74 75 75 90 98 94 73 96 82 79 72 66 66 83 44 35 36 36 41 45 40 44 38 35 32 53 51 71 85 76 73 60 61 74 69 50 58 58 90
84 85 86 84 84 88 82 76 77 71 80 94 99 95 76 75 62 83 97 77 64 53 77 62 62 40 34 41 44 51 66 59 66 52 60 65 83 81 76 55 53 58 58 45 65 65 59
90 87 89 88 86 87 87 89 80 78 82 90 94 79 95 82 76 83 74 75 77 59 46 65 64 76 69 65 66 56 58 61 59 62 66 82 86 88 89 64 74 69 45 66 73 72 64
91 92 90 90 88 86 87 88 88 83 80 84 79 78 96 87 71 66 52 48 59 81 84 57 51 66 68 67 59 54 55 54 68 66 57 65 66 84 97 69 95 56 47 45 54 62 49
87 87 86 86 88 86 87 84 88 90 79 95 96 92 100 98 67 59 52 47 55 73 98 78 59 76 75 81 69 68 66 58 58 49 52 53 65 87 96 88 68 53 45 29 39 39 31
92 91 88 86 84 85 86 85 79 86 92 87 98 98 99 96 77 60 64 48 89 89 85 90 78 73 66 96 95 83 81 58 53 51 44 50 62 80 94 87 90 63 41 29 26 67 50
86 89 90 90 85 83 83 85 83 91 91 89 91 90 100 99 72 62 88 84 88 94 99 79 77 85 73 83 98 93 86 50 68 65 63 68 72 79 81 88 79 45 34 27 50 83 60
82 82 82 82 83 84 91 96 97 89 82 91 91 82 97 98 78 62 66 77 72 80 99 99 97 94 93 90 95 82 86 72 67 59 88 84 78 89 86 86 81 33 51 53 78 67 60
90 92 94 95 94 90 93 99 100 100 83 81 90 84 87 96 85 72 62 59 60 51 82 93 100 100 87 90 86 90 89 88 76 86 86 97 84 78 68 68 59 64 67 69 64 63 60